Regional Weather Roundup
Issued by NWS Wakefield, VA

Home | Current Version | Previous Version | Text Only | Print | Product List | Glossary On
Versions: 1 2 3 4 5 6 7 8 9 10 11 12 13 14 15 16 17 18 19 20
000
ASUS41 KAKQ 302015
RWRAKQ

REGIONAL WEATHER ROUNDUP
NATIONAL WEATHER SERVICE WAKEFIELD VA
400 PM EDT THU JUL 30 2015

Note: "fair" indicates few or no clouds below 12,000 feet with no
significant weather and/or obstructions to visibility. * = Denotes
station may not report precipitation (e.g., rain,snow,etc.),
thunder or fog.

VAZ042-051-052>054-056-302100-
NORTHERN VIRGINIA

CITY           SKY/WX    TMP DP  RH WIND       PRES   REMARKS
WASH NATIONAL  CLOUDY    81  75  82 S7        29.87F
DULLES         CLOUDY    82  76  81 SW7       29.87F
FORT BELVOIR   CLOUDY    77  74  91 SE6       29.87F
QUANTICO       NOT AVBL
FREDERICKSBRG* HVY RAIN  81  76  84 W24       29.90R
STAFFORD*      CLOUDY    76  73  90 NE5       29.91R THUNDER
WARRENTON      CLOUDY    82  77  85 CALM      29.86F
CULPEPER*      PTSUNNY   79  75  86 SW3       29.87F
MANASSAS*      NOT AVBL
LEESBURG*      PTSUNNY   88  77  70 W5        29.88F HX 100
WINCHESTER     CLOUDY    88  73  62 NW5       29.88F HX  96
FRONT ROYAL*   MOCLDY    82  77  83 NE5       29.88F
LURAY*         MOCLDY    90  73  58 NW3       29.88F HX  98
$$

VAZ048-049-060>072-079>083-302100-
CENTRAL AND SOUTH CENTRAL VIRGINIA

CITY           SKY/WX    TMP DP  RH WIND       PRES   REMARKS
RICHMOND       CLOUDY    91  74  57 S14       29.86F HX 100
CHESTERFIELD*  FAIR      90  68  48 SW8       29.88F
PETERSBURG*    PTSUNNY   91  80  68 SW6       29.88F HX 109
HANOVER        PTSUNNY   90  74  59 SW12      29.87F HX  99
TAPPAHANNOCK*  MOSUNNY   91  72  54 S7        29.86F HX  98
QUINTON*       FAIR      90  75  61 S7        29.86F HX 100
CHARLOTTSVILLE PTSUNNY   88  73  61 S8        29.87F HX  95
GORDONSVILLE*  FAIR      82  79  89 CALM      29.86F
ORANGE*        PTSUNNY   82  77  83 SE5       29.89F
LOUISA*        PTSUNNY   82  73  74 S7        29.87S
BUMPASS*       CLOUDY    85  75  71 W8        29.87S
FARMVILLE*     CLOUDY    83  73  69 SW9       29.89R
CREWE*         FAIR     N/A N/A N/A S5        29.89S
FORT PICKETT*  FAIR      87  75  68 S7        29.89F HX  96
CHASE CITY*    CLOUDY    81  81 100 W5        29.91F
CLARKSVILLE*   MOCLDY    79  77  94 CALM      29.90F
SOUTH HILL*    PTSUNNY   86  76  71 CALM      29.94F HX  96
LAWRENCEVILLE* FAIR      88  75  66 W3        29.88F HX  97
EMPORIA*       MOSUNNY   90  72  55 SE7       29.89F HX  96
$$

VAZ088>098-302100-
SOUTHEAST VIRGINIA

CITY           SKY/WX    TMP DP  RH WIND       PRES   REMARKS
NORFOLK        MOSUNNY   93  72  50 W5        29.86F HX 101
VIRGINIA BEACH PTSUNNY   92  76  59 SE12G17   29.86F HX 104
NORFOLK NAVAL  MOSUNNY   90  75  61 NE5       29.88F HX 100
WEST POINT*    MOSUNNY   93  71  48 S9        29.87F HX  99
SALUDA*        MOCLDY    89  76  64 S7        29.86F HX 100
NEWPORT NEWS   MOSUNNY   93  71  48 S10       29.87F HX 100
LANGLEY AFB    SUNNY     88  75  65 E10       29.86F HX  98
FORT EUSTIS    SUNNY     91  70  49 S6        29.85F HX  97
WILLIAMSBURG*  SUNNY     95  77  55 S8        29.87F HX 109
HR EXEC AP*    FAIR      91  73  55 S5        29.88F HX 100
FRANKLIN*      PTSUNNY   93  73  52 S9        29.88F HX 101
WAKEFIELD      SUNNY     92  73  53 VRB6      29.87F HX 100
$$

VAZ020-022-025-037-045-302100-
WEST CENTRAL AND SOUTHWEST VIRGINIA

CITY           SKY/WX    TMP DP  RH WIND       PRES   REMARKS
STAUNTON*      PTSUNNY   90  73  57 SW7       29.92F HX  99
WAYNESBORO*    FAIR      86  73  66 SW6       29.92F
HOT SPRINGS VA PTSUNNY   79  68  68 W13       30.08F
LYNCHBURG      MOSUNNY   87  73  62 CALM      29.93F
DANVILLE       MOSUNNY   87  77  72 CALM      29.91F HX  99
SOUTH BOSTON*  MOCLDY    83  77  82 CALM      29.91F
MARTINSVILLE   MOSUNNY   94  68  42 NW6       29.93F HX  98
ROANOKE        MOSUNNY   93  67  42 W8        29.94F HX  96
BLACKSBURG     PTSUNNY   86  71  60 NW8       30.03F
DUBLIN*          N/A     88  70  54 W6        30.02F
MARION*        MOSUNNY   84  69  60 W12       30.08F
HILLSVILLE*    MOSUNNY   84  66  54 N10       30.04F
RICHLANDS*     MOCLDY    78  71  77 NW9       30.10S
WISE*          PTSUNNY   84  64  51 NW8       30.13F
ABINGDON*      MOSUNNY   87  68  53 N10       30.05F
$$

MDZ021>025-VAZ099-100-302100-
SOUTHERN MARYLAND AND THE DELMARVA PENINSULA

CITY           SKY/WX    TMP DP  RH WIND       PRES   REMARKS
PATUXENT RIVER PTSUNNY   88  73  61 SW10      29.85F HX  95
BAY BRIDGE APT   N/A     77  73  88 CALM      29.87R
LEONARDTOWN    MOSUNNY   88  72  58 S7        29.87S
DOVER          PTSUNNY   88  74  64 S14       29.84F HX  97
GEORGETOWN     MOSUNNY   89  71  55 SW10      29.86F HX  95
EASTON         NOT AVBL
CAMBRIDGE      PTSUNNY   88  72  58 S7        29.85F
SALISBURY      MOSUNNY   89  72  56 SW9       29.86F HX  96
OCEAN CITY     SUNNY     84  76  76 VRB7G20   29.87F
WALLOPS ISLAND SUNNY     85  75  72 S16       29.89F
ACCOMACK*      SUNNY     88  75  66 S12       29.88F HX  97
$$

NCZ012>017-030>032-302100-
NORTH CENTRAL AND EASTERN NORTH CAROLINA

CITY           SKY/WX    TMP DP  RH WIND       PRES   REMARKS
ROANOKE RAPIDS FAIR      93  70  46 S5        29.88F HX  99
RALEIGH        MOSUNNY   94  72  48 VRB6      29.88F HX 102
ELIZABETH CITY MOSUNNY   88  77  69 S9        29.89F HX 100
AHOSKIE*       MOSUNNY   89  71  55 CALM      29.88F HX  95
EDENTON*         N/A     87  75  68 S9        29.89F HX  96
CURRITUCK*     MOSUNNY   90  72  55 S8        29.89F HX  97
KILL DEVIL HLS MOSUNNY   92  74  56 S7        29.89F HX 102
MANTEO         MOSUNNY   87  76  71 S16       29.90F HX  97
CAPE HATTERAS  SUNNY     86  78  77 S10       29.92F HX  98
TARBORO*         N/A     95  68  41 CALM      29.88F HX  99
GOLDSBORO      SUNNY     94  70  45 NW3       29.86F HX 100
WASHINGTON     SUNNY     87  74  66 SE7       29.89F HX  95
GREENVILLE     SUNNY     95  66  38 S7        29.90F HX  98
NEW BERN       PTSUNNY   88  76  67 CALM      29.90F HX  99
WILMINGTON     MOSUNNY   90  75  61 E7        29.87F HX 100
$$

VAZ048-302100-
ELSEWHERE

CITY           SKY/WX    TMP DP  RH WIND       PRES   REMARKS
HARRISBURG PA  PTSUNNY   86  72  62 NW8       29.83F
BALTIMORE      CLOUDY    80  75  84 CALM      29.85F
ANNAPOLIS      LGT RAIN  78  73  84 CALM      29.86F
ANDREWS AFB    CLOUDY    77  74  91 SW7       29.86F
PHILADELPHIA   TSTM      79  72  79 NW8       29.84F
HENDERSON NC   MOSUNNY   88  69  52 W3        29.90F
GREENSBORO     PTSUNNY   88  70  55 NW5       29.92F
ROCKY MOUNT    CLOUDY    94  70  45 CALM      29.88F HX 100
$$

VAZ100-302100-
MARINE

STATION/POSITION TIME  TEMP    WIND        PRES    WAVE   SWELL
                       AIR SEA DIR/SP/G            HT/PER HT/PER
                 (UTC) (F)     (DEG/KT/KT) (MB)    (FT/S) (FT/S)
BRANDYWINE LGT   1900   78 79  180/ 16/ 18 1011.8F
CAPE MAY NJ      1900   80 81  160/ 14/ 21 1011.4F
LEWES DE         1900   89 73  240/  9/ 14 1011.5F
15NM E FENWICK I 1950   80 79  190/ 14/ 16 1012.0F   3/ 9   2/ 9
OCEAN-CITY-INLET 1900   79 81  200/ 10/ 12 1011.6F
WACHAPREAGUE VA  1900   85 87  200/  9/ 11 1012.6F
GOOSES REEF MD   2000   84 83  180/ 14/ 17 1011.6F
COVE POINT MD    1900   82     180/ 15/ 17 1012.2F
SOLOMONS ISLAND  1900      84                N/A
BISHOPS HEAD MD  1900   84 84  180/ 12/ 14 1011.1F
PINEY POINT MD   1900          230/ 12/ 13   N/A
POTOMAC MD       2000   85 84  170/ 12/ 16 1009.9F   2/ 3
CAMBRIDGE MD     1900   88 84  180/  7/ 15 1010.6F
LEWISETTA VA     1900   87 85  210/ 12/ 14 1011.1F
RAPPAHANNOCK LGT 1900          190/  9/ 10 1012.8F
STINGRAY PT      2000   84 84  160/ 14/ 16 1011.4F   1/ 3
YORK RVR RNG VA  1900   82     140/ 14/ 16 1011.6F
YORKTOWN VA      1900   87 84   60/  4/  7 1011.8F
JAMESTOWN VA     2000   89 87  180/  4/  8   N/A
DOMINION TERM VA 1900   85      90/  6/  8 1012.3F
KIPTOPEKE VA     1900      83  160/ 12/ 15   N/A
CHES BAY BRIDGE  1900   85 82   90/  5/ 11 1011.9F
CAPE HENRY VA    1900   83     140/ 16/ 22   N/A
CHESAPEAKE LGHT  1900   81     170/ 14/ 15 1013.3F
WILLOUBY STN VA  1900   83      70/  7/  8 1013.2F
CAPE HENRY BUOY  1928      81                N/A     3/10
1ST LANDING BUOY 2000      81              1011.1F   2/ 4
CAPE CHARLES BUO 1926      81                N/A     2/10   2/10
OFFSHORE WE BUOY 1911      83                N/A     3/10   2/10
64NM E OF VA BCH 1950   82 82  190/ 14/ 17 1012.4F   3/ 9   2/ 9
DUCK PIER NC     1900   82 68  170/  6/ 10 1012.2F
44100 DUCK FRF   1924      81                N/A     3/10
44056 DUCK FRF   1911      75                N/A     2/ 9   2/11
OREGON INLET NC  1900   83 84  190/ 14/ 16 1013.4F
HATTERAS NC      1900   85 83  170/ 11/ 16 1013.4F
DIAMOND SHLS NC  1950   84 86  170/ 17/ 21 1013.0F   4/ 5   2/ 8
CAPE LOOKOUT NC  2000   83     160/ 12/ 14 1012.2F
$$


USA.gov is the U.S. government's official web portal to all federal, state and local government web resources and services.